GFSSGP_prec_cloud_057.txt.gz
Cloud_Cover
100 100 100 100 94 100 100 85 100 98 0 1 12 5 90 94 99 100 100 0 3 0 0 2 0 0 0 0 4 0 0 0 0 0 0 0 0 0 96 43 11 0 0 0 0 0 2 0 0
100 100 100 100 100 100 100 99 100 94 6 85 99 14 18 5 46 83 100 0 2 0 2 4 0 0 0 2 0 0 0 1 0 0 0 0 0 0 5 57 22 5 0 2 0 0 0 0 0
100 100 100 100 100 100 100 94 99 65 100 100 100 100 40 15 87 50 5 24 5 0 2 4 0 5 3 5 3 0 0 0 0 0 0 0 0 0 0 8 30 5 1 0 0 0 3 4 2
100 100 100 100 100 100 100 100 100 92 100 100 100 100 100 6 94 40 5 31 7 5 3 0 0 5 5 5 14 0 0 0 0 0 0 0 0 0 0 0 3 0 0 0 0 0 3 34 5
100 100 100 100 100 100 100 100 100 100 100 100 100 100 100 100 100 62 4 32 42 42 1 2 0 2 0 0 11 8 3 0 0 0 0 0 0 0 0 1 5 0 0 0 0 0 5 0 5
100 100 100 100 100 100 100 100 100 100 100 100 100 100 100 100 100 100 16 6 16 8 5 51 5 5 0 0 0 0 1 1 0 0 0 0 0 0 0 0 1 0 0 0 0 0 0 5 5
93 100 100 100 100 100 100 100 100 100 100 100 100 83 97 100 100 100 100 6 68 5 12 65 22 5 5 1 0 0 0 0 0 0 0 0 0 0 0 0 2 5 3 0 5 1 3 88 23
100 80 84 100 100 100 100 100 100 100 100 100 100 100 100 95 100 100 100 77 31 74 9 5 7 81 56 5 5 5 0 0 0 0 0 0 0 2 1 1 5 0 0 4 5 5 5 5 5
100 100 100 100 100 100 100 100 100 100 100 100 100 100 100 100 100 100 100 100 20 10 5 7 26 5 5 5 5 8 0 5 1 5 0 16 0 0 5 5 5 5 5 5 5 1 5 32 12
2 69 100 100 100 100 100 99 92 75 100 100 100 100 100 100 100 100 100 100 100 100 100 92 15 10 5 23 4 5 2 3 1 2 0 5 4 2 2 1 5 3 5 5 5 5 5 16 5
0 0 23 100 100 99 91 100 100 67 76 100 100 100 94 100 100 100 100 100 100 100 100 100 100 75 6 12 43 5 5 59 40 5 5 4 5 5 0 0 4 13 38 5 5 5 5 21 5
0 0 0 0 5 12 46 91 83 92 98 75 100 100 100 100 100 100 100 100 100 100 100 100 100 79 77 74 68 69 93 52 26 89 9 12 18 5 1 5 6 94 53 21 5 5 5 5 64
0 0 0 0 0 1 1 4 5 4 49 60 52 100 100 100 100 100 100 100 100 100 100 100 100 100 100 98 100 96 95 93 57 31 89 29 6 100 5 11 16 43 17 40 62 5 5 13 28
0 0 0 0 0 0 0 0 0 3 61 78 33 58 100 100 100 100 100 100 100 100 100 100 100 100 100 100 100 100 100 100 78 99 100 100 76 48 36 32 98 18 17 85 83 42 30 34 31
0 0 0 0 0 0 0 0 0 0 0 31 80 99 18 100 100 100 100 100 100 100 100 100 100 100 100 100 100 99 100 100 100 79 100 100 82 86 100 100 51 48 73 77 27 90 70 20 51
0 0 0 0 0 0 0 0 0 0 0 0 25 100 24 51 100 100 100 100 100 100 100 100 100 100 100 100 100 100 100 100 100 100 100 96 100 100 100 100 100 69 100 100 98 67 91 99 98
0 0 0 0 0 0 0 0 0 0 0 0 3 99 90 100 42 100 100 100 100 100 100 100 100 100 100 100 100 100 100 100 100 100 100 100 100 100 100 100 100 100 100 89 97 94 90 80 59
4 8 0 0 10 0 0 0 0 0 0 0 0 14 100 100 7 86 93 100 100 100 100 100 100 100 100 100 100 100 100 100 100 100 100 100 100 99 100 100 100 100 100 98 89 100 100 100 94
0 0 2 5 0 0 0 0 0 0 0 0 0 0 0 1 18 41 83 99 100 100 100 100 100 100 100 100 100 100 100 100 100 100 100 100 100 96 100 100 100 98 100 100 60 58 33 40 100
0 0 0 0 0 0 0 0 0 0 0 0 0 0 0 91 100 46 64 98 92 100 100 100 100 100 100 100 100 100 100 100 100 100 100 100 100 100 100 100 96 100 100 100 40 8 77 21 14
0 0 0 3 4 0 0 0 0 0 0 0 0 0 0 70 99 98 96 100 70 100 80 100 100 100 100 100 100 100 100 100 100 100 100 100 100 100 100 100 98 100 100 95 100 100 95 20 11
0 3 2 0 0 0 0 0 0 0 0 0 0 0 0 1 100 99 100 100 95 36 100 99 100 100 100 100 100 100 100 100 100 100 100 100 100 100 100 100 100 100 100 100 85 100 97 54 14
5 5 4 0 0 0 0 0 0 0 0 0 0 0 0 0 80 100 100 100 100 100 100 100 100 100 100 100 100 100 100 100 100 100 100 100 100 82 100 100 100 100 100 69 84 91 99 45 70
8 5 3 1 0 0 0 0 0 40 0 0 0 0 0 0 7 100 100 97 100 100 100 100 100 100 100 100 100 100 100 100 100 100 100 100 100 100 100 100 100 100 95 89 57 67 94 100 11
64 26 4 19 86 2 32 0 0 1 0 0 0 0 0 0 0 72 100 62 100 100 100 100 100 100 100 100 100 100 100 100 100 100 100 100 100 100 100 100 100 100 100 79 95 58 50 80 18
100 100 100 100 100 100 99 10 68 2 4 0 0 0 0 0 0 0 98 100 26 100 100 100 100 100 100 100 100 100 100 97 100 100 100 100 100 100 100 100 100 100 49 78 89 39 51 48 93
100 100 100 100 100 95 68 68 74 0 0 0 0 0 0 0 0 3 5 98 100 95 100 100 100 100 100 100 100 100 100 100 100 100 100 98 60 99 100 94 100 97 56 83 100 52 92 95 100
100 100 100 100 100 100 100 100 100 100 97 49 5 4 2 1 5 5 5 5 100 100 100 100 100 100 100 100 100 100 100 100 100 100 100 100 100 85 34 77 84 100 100 100 97 97 94 100 100
100 88 100 100 100 100 100 100 100 100 100 96 10 5 5 5 5 4 5 5 5 97 100 100 100 100 100 100 100 60 100 100 100 100 100 100 100 100 97 95 97 100 100 100 100 100 100 100 100
100 97 100 100 100 100 100 100 100 100 100 56 37 5 61 5 5 4 5 5 2 5 29 99 43 100 100 100 100 100 100 100 100 99 100 100 100 100 100 100 100 100 100 100 100 100 100 100 100

GFSSGP_prec_cloud_060.txt.gz
Cloud_Cover
100 100 100 100 100 100 100 100 100 47 98 8 3 86 100 42 0 99 26 62 4 5 0 2 4 5 5 0 0 0 0 0 0 0 0 0 1 0 0 0 0 0 0 0 0 0 0 0 0
100 100 100 100 100 100 100 100 100 84 8 5 100 100 97 3 3 5 34 79 4 0 0 2 8 1 3 4 0 2 3 0 0 0 0 0 0 0 0 0 0 0 0 0 0 0 0 0 0
100 100 100 100 100 100 100 100 100 72 37 94 100 100 81 2 94 100 100 32 65 0 0 0 21 8 3 0 0 4 2 0 4 0 0 0 0 0 0 0 0 0 2 5 0 0 0 0 0
100 100 99 100 100 100 100 100 100 82 100 100 100 100 100 100 100 100 93 6 7 56 1 15 4 33 5 5 0 0 0 0 0 0 0 0 5 1 0 0 0 0 1 0 0 0 0 0 0
100 100 100 100 100 100 100 100 100 99 100 100 100 100 26 0 81 100 100 100 87 5 1 0 0 18 1 0 0 4 0 0 0 0 0 0 1 0 0 0 0 0 0 0 0 3 0 5 0
100 100 84 100 100 100 100 100 100 100 100 100 100 100 100 100 100 100 100 100 100 100 89 83 3 7 10 5 1 0 4 0 0 0 0 0 0 0 0 4 0 0 0 0 0 0 0 0 4
100 100 82 100 100 100 100 100 100 100 100 100 100 100 100 100 100 100 100 100 100 98 100 100 49 10 42 10 2 4 0 0 0 0 0 0 0 4 0 1 5 0 0 1 3 0 0 0 3
100 100 98 13 87 100 100 100 100 100 100 100 100 100 74 4 100 100 100 100 100 100 100 100 100 94 50 25 6 5 15 5 5 3 0 0 0 4 5 4 0 1 1 5 5 5 5 5 5
100 100 100 100 100 100 100 100 100 100 100 100 100 100 100 100 100 100 100 100 100 83 100 100 100 100 97 100 83 5 72 31 48 5 4 3 0 0 6 5 73 6 3 5 59 6 5 34 96
98 100 100 100 100 100 100 100 100 100 100 100 100 100 100 100 100 100 100 100 100 86 100 100 100 100 100 100 84 100 98 99 74 5 3 0 1 1 5 5 5 34 5 53 54 12 7 100 74
2 58 100 100 100 100 100 100 100 100 100 100 100 100 100 100 100 100 100 100 100 100 100 100 100 100 100 100 77 30 45 95 45 5 5 5 5 5 5 54 10 43 5 6 94 38 100 43 38
0 0 4 78 91 76 100 100 100 100 71 100 100 67 96 100 100 100 100 100 100 100 100 100 100 100 100 100 100 100 100 99 99 9 22 11 63 57 41 86 91 28 75 20 80 97 14 15 6
0 0 0 0 5 1 5 59 100 99 50 100 100 100 100 100 100 100 100 100 100 100 100 100 100 100 100 100 100 100 100 100 76 45 20 60 100 72 83 100 97 92 100 59 99 38 16 10 46
0 0 0 0 1 4 0 5 28 100 100 94 94 100 100 100 100 100 100 100 100 100 100 100 100 100 100 100 100 100 90 100 100 97 94 100 96 95 97 100 100 100 48 76 6 45 27 97 86
0 0 0 0 0 0 0 0 0 4 0 59 99 100 100 100 100 100 100 100 100 100 100 100 100 100 100 100 100 100 100 100 100 100 100 100 100 100 100 100 100 100 100 100 70 58 79 53 62
0 0 0 0 0 0 0 0 0 0 0 0 2 81 94 100 18 24 7 100 100 100 100 100 72 100 100 100 100 100 100 100 100 100 100 100 100 100 100 100 100 100 100 98 100 99 77 61 100
0 0 0 0 0 0 0 0 0 0 0 0 0 0 2 45 52 60 62 6 81 100 100 100 100 100 100 100 100 100 100 100 100 100 100 100 100 100 100 100 100 100 94 96 100 99 57 37 60
0 0 0 0 0 0 0 0 0 0 0 0 0 0 0 0 9 87 37 4 9 96 100 100 100 100 100 100 100 100 100 100 100 100 100 100 100 100 100 100 100 100 99 94 89 94 100 97 23
0 2 0 33 98 34 0 0 0 0 0 0 0 0 0 0 0 4 2 0 5 65 100 100 100 100 100 100 100 100 100 100 100 100 100 100 100 100 100 100 100 100 100 100 99 82 28 99 98
5 2 0 0 34 4 3 0 0 0 0 0 0 0 0 0 0 0 3 4 5 92 80 100 100 100 100 100 100 100 100 100 100 100 100 100 100 100 100 100 100 100 100 100 100 94 87 93 90
1 0 0 0 0 5 0 0 0 0 0 0 0 0 0 0 0 0 0 1 1 67 100 100 51 100 100 100 100 100 100 100 100 100 100 100 100 100 100 100 100 100 87 100 100 90 97 89 95
3 17 16 4 5 5 9 0 0 0 0 0 0 0 0 0 0 0 0 0 0 0 53 100 100 97 70 90 100 100 100 100 100 100 100 100 100 100 100 97 100 100 100 100 100 100 100 81 96
31 14 47 18 5 4 0 0 0 0 0 2 0 0 0 0 0 0 0 0 0 0 5 100 99 34 95 90 80 98 100 100 100 100 100 100 100 100 100 100 100 100 100 100 80 100 100 100 100
100 96 46 81 41 2 0 0 0 0 87 11 0 0 0 0 0 0 0 0 0 0 4 100 100 88 20 37 100 63 92 100 100 100 100 100 100 100 100 100 100 100 100 86 100 100 100 100 100
100 100 73 82 99 0 7 56 0 4 1 98 3 0 0 0 0 0 0 0 0 0 0 98 70 100 100 69 78 100 98 100 100 100 100 100 100 100 100 100 100 100 100 100 100 100 100 100 100
100 100 100 100 85 81 100 12 100 100 44 40 0 0 0 0 0 0 0 2 0 0 0 76 95 100 100 100 100 100 100 87 82 100 100 100 100 100 100 100 100 100 100 100 100 100 100 100 100
88 69 100 100 100 93 56 49 100 68 100 15 0 0 0 0 0 3 6 12 6 5 5 0 100 100 100 100 62 98 100 100 100 100 100 100 100 100 100 100 100 100 100 100 100 100 90 97 78
99 91 100 100 100 100 100 100 100 100 100 61 18 31 0 3 2 21 65 16 5 8 5 0 82 100 100 100 100 94 78 6 86 88 100 100 100 100 100 100 100 100 100 100 100 100 100 53 91
100 100 90 75 100 100 100 100 100 100 100 94 81 100 17 4 2 2 2 40 50 5 5 5 5 100 98 100 100 100 100 36 100 71 99 100 100 100 94 100 100 100 94 100 68 84 96 74 49
100 100 100 94 70 96 100 100 100 100 100 100 100 100 98 6 5 5 4 4 0 0 0 0 1 2 71 85 56 100 100 100 100 100 100 100 100 100 100 100 100 100 41 100 100 63 99 47 78

GFSSGP_prec_cloud_063.txt.gz
Cloud_Cover
100 100 100 99 100 100 100 100 100 100 3 68 36 5 41 19 65 80 5 99 57 30 30 56 8 5 0 5 5 0 0 0 0 0 0 0 0 0 5 5 4 1 0 0 0 0 0 0 0
100 99 100 100 100 100 100 100 100 100 100 100 13 2 80 70 37 100 8 14 16 26 2 40 22 3 5 0 0 0 0 0 0 0 0 0 0 0 0 4 0 0 0 1 0 0 0 0 0
100 100 88 100 100 100 100 100 100 100 93 99 100 71 95 15 6 100 100 40 100 97 60 11 26 0 0 0 1 1 0 0 0 0 0 0 0 0 0 1 1 0 0 0 0 0 0 0 0
100 100 36 100 100 100 100 100 64 68 100 100 100 100 42 5 6 90 100 96 10 5 99 54 29 1 4 0 4 4 0 0 4 0 0 0 0 0 0 0 0 0 0 0 5 0 0 0 1
100 100 92 72 100 100 100 100 100 100 98 99 100 100 100 6 3 71 100 94 6 73 100 32 28 33 5 10 14 19 9 5 5 4 2 0 1 0 0 0 2 2 0 5 5 16 3 5 5
100 100 100 100 100 100 100 100 100 100 100 100 100 100 80 0 1 20 99 57 0 2 5 91 100 88 100 100 100 76 5 60 30 6 0 2 1 0 4 0 5 4 2 5 5 5 5 5 9
100 100 100 100 100 100 100 100 100 100 100 100 100 100 100 4 4 8 57 100 86 90 100 100 100 100 100 99 21 36 97 90 73 6 5 8 1 46 18 6 5 5 5 4 5 6 5 5 5
100 100 100 100 100 100 100 100 100 100 100 100 100 100 100 93 97 100 100 100 100 100 100 100 100 100 100 100 100 87 100 48 15 100 66 9 21 13 37 5 12 5 0 5 5 5 50 5 20
100 100 100 100 100 100 100 100 100 100 100 100 90 100 100 100 99 100 100 100 100 100 100 32 71 100 100 100 100 100 100 100 97 100 54 24 100 82 69 96 82 76 5 26 19 5 12 50 53
100 100 100 100 100 100 100 100 100 100 100 100 64 99 100 100 100 100 100 100 100 31 95 89 49 100 100 100 100 100 100 100 100 87 49 64 10 27 25 82 100 76 28 14 14 5 51 71 99
100 100 100 100 100 100 100 100 100 100 86 61 100 100 100 100 100 100 100 100 100 100 98 100 94 26 100 100 100 100 100 100 100 100 100 92 99 99 100 100 100 100 94 45 47 77 89 100 100
90 100 100 100 100 100 100 100 100 100 76 100 99 100 99 100 100 100 100 100 100 100 100 100 100 100 100 100 100 100 100 100 100 100 100 100 100 100 100 100 100 100 100 100 96 100 100 100 100
0 1 19 100 100 100 100 100 100 100 100 100 99 97 93 10 100 100 100 100 100 100 100 100 100 100 100 100 100 100 100 100 100 100 100 100 100 100 100 100 100 100 100 100 100 100 100 100 100
0 0 0 1 4 100 100 100 100 100 100 100 100 100 100 95 67 100 100 100 100 100 100 100 100 100 100 100 100 100 100 100 100 100 100 100 95 100 100 100 100 100 100 100 100 100 100 100 99
0 0 0 0 0 0 1 4 51 100 100 100 100 100 100 100 100 100 100 100 100 100 100 100 100 100 100 100 100 100 100 100 100 100 100 100 100 100 100 100 100 100 100 100 100 100 100 100 100
0 0 0 0 0 0 0 0 0 4 9 3 21 90 100 100 100 100 64 98 100 100 100 100 100 100 100 100 100 100 100 100 100 100 100 100 100 100 100 100 100 100 100 100 100 100 59 74 100
0 0 0 0 0 0 0 0 0 0 0 0 0 0 8 62 94 100 100 8 100 100 100 100 100 100 100 100 100 100 100 100 100 100 100 100 100 100 100 100 100 100 100 100 45 98 71 99 80
0 0 0 0 0 0 0 0 0 0 0 0 0 0 0 0 0 2 66 100 82 100 100 100 100 100 100 100 100 100 100 100 100 100 100 100 100 100 100 100 100 100 100 99 74 81 100 100 89
0 0 0 0 0 93 5 0 0 0 0 0 0 0 0 0 0 0 0 0 5 95 100 100 100 100 100 100 100 100 100 100 100 100 100 100 100 100 100 100 100 100 87 73 100 38 100 100 29
5 46 2 0 0 99 5 4 4 0 0 0 0 0 0 0 0 0 0 0 0 1 84 99 94 100 100 100 100 41 98 100 100 100 100 100 100 100 100 100 100 100 100 100 73 100 100 99 99
6 81 5 0 0 100 5 23 4 0 0 0 0 0 0 0 0 0 0 0 0 0 3 3 50 100 100 94 100 80 92 100 100 100 100 100 100 100 100 100 100 100 100 100 100 100 100 100 100
8 2 0 4 28 2 92 1 0 0 0 0 0 0 0 0 0 0 0 0 0 0 0 0 9 100 91 40 33 98 53 100 100 100 100 100 100 100 100 100 100 100 100 100 100 100 100 100 100
4 100 100 52 47 3 0 2 0 0 0 0 0 0 0 0 0 0 0 0 0 0 0 0 0 16 100 6 5 54 68 100 100 100 100 100 100 100 100 100 100 100 100 100 100 100 100 100 100
5 76 100 90 36 6 0 0 0 0 0 0 0 2 0 0 0 0 0 0 0 0 0 0 0 0 0 60 6 53 61 87 100 100 100 100 100 100 100 100 100 100 100 100 100 100 100 100 100
98 98 50 69 37 3 61 96 0 0 2 4 0 2 0 0 0 0 0 0 0 0 0 0 0 0 0 0 0 8 91 74 49 98 56 100 100 100 100 100 100 100 100 100 100 100 100 100 100
100 100 16 30 90 26 64 75 0 69 23 5 80 86 4 0 0 0 0 0 0 0 0 0 0 0 0 0 0 10 90 93 88 62 46 96 98 92 100 100 100 100 100 100 100 100 100 100 100
100 100 92 100 99 91 84 97 100 96 100 100 100 100 83 8 5 0 0 0 0 0 0 0 0 0 0 0 0 0 43 100 97 58 8 63 94 100 100 100 100 100 100 100 100 100 100 100 100
99 97 100 100 93 86 43 100 100 100 100 100 100 100 100 80 3 0 0 0 1 0 0 2 0 0 0 0 0 0 0 96 100 100 67 9 94 100 100 100 100 100 100 100 100 100 100 100 100
42 48 98 100 99 51 5 100 100 100 100 100 100 100 68 23 2 1 3 4 5 4 1 0 0 0 0 0 0 0 0 0 96 100 100 64 31 100 100 100 76 100 100 100 100 100 100 100 100
100 84 24 100 64 83 29 4 100 100 100 100 100 100 85 46 90 100 72 2 0 0 0 0 0 0 0 0 0 0 0 0 0 100 100 100 93 40 68 100 100 97 100 100 100 100 100 100 100

GFSSGP_prec_cloud_069.txt.gz
Cloud_Cover
94 99 100 100 100 100 100 91 5 100 96 100 32 85 96 29 2 34 97 78 5 52 45 18 63 19 5 5 1 0 0 0 0 1 0 0 0 0 0 2 5 0 3 0 0 0 4 0 5
100 61 94 100 100 100 100 98 5 58 5 82 100 70 87 100 95 85 100 57 5 32 74 52 18 100 16 0 5 3 1 5 2 2 5 5 22 1 5 5 5 0 2 5 5 4 5 0 5
98 52 39 65 100 100 100 100 100 95 6 4 100 100 29 52 100 100 100 100 69 31 83 59 16 73 91 5 3 3 2 5 5 2 1 8 74 99 5 0 5 0 5 9 41 18 38 5 14
87 65 52 76 100 100 100 100 100 99 54 32 58 100 36 5 8 92 100 55 49 93 100 97 25 7 39 20 98 8 5 5 3 2 5 91 100 85 5 5 67 0 3 62 5 52 5 40 54
100 100 13 91 100 100 100 100 100 100 90 18 5 70 69 70 78 100 100 100 8 76 100 100 100 13 5 98 100 88 88 18 5 2 3 52 97 100 5 26 98 5 5 5 14 11 5 59 8
100 100 75 100 100 100 100 100 100 100 100 62 5 5 21 5 6 29 100 100 100 52 69 88 100 100 5 69 87 100 100 31 5 4 96 100 100 98 9 100 77 5 83 5 76 47 5 5 21
100 99 31 100 100 100 100 100 100 100 100 100 94 6 16 4 51 59 93 99 100 78 69 100 81 38 20 61 58 15 96 13 5 8 7 100 100 13 64 100 99 99 97 5 7 69 96 96 73
100 95 100 86 59 100 100 100 100 100 100 100 94 99 6 53 50 100 100 100 100 100 74 95 100 98 99 30 5 8 87 91 15 5 5 48 97 52 93 100 100 100 100 23 5 83 100 100 100
99 99 34 100 100 100 100 100 100 88 100 99 100 8 62 29 100 100 100 100 100 100 100 100 100 100 74 71 97 100 100 99 76 20 80 100 100 100 100 100 100 34 12 5 15 78 100 100 100
100 100 100 100 100 100 100 96 100 35 100 83 85 43 85 69 13 68 100 100 100 100 100 100 100 100 100 100 100 100 100 66 48 73 100 100 94 100 100 100 100 100 97 99 100 100 100 100 100
100 100 100 100 100 100 100 33 92 70 100 95 22 73 84 46 29 42 94 95 100 100 100 100 100 100 100 100 100 100 100 100 98 68 63 100 100 100 100 100 100 100 100 100 100 100 100 100 100
100 100 100 100 100 100 100 100 97 97 88 100 100 100 100 54 3 100 6 61 100 100 100 100 100 84 98 100 100 100 100 100 100 100 90 75 63 100 100 100 100 100 100 100 100 100 100 100 100
100 100 100 100 100 100 100 100 100 100 100 100 100 100 96 99 94 100 14 4 94 90 100 100 100 100 100 100 100 100 100 100 100 100 100 100 100 100 100 100 100 100 100 100 100 100 100 100 100
78 99 77 100 100 100 100 100 100 100 100 100 100 100 100 100 100 24 81 56 3 39 20 100 100 100 87 100 100 100 100 100 100 100 100 100 100 100 100 100 100 100 100 100 100 100 100 100 100
0 3 6 100 100 100 100 100 100 100 100 100 100 100 100 100 100 100 100 100 100 90 9 9 100 98 100 98 100 100 100 100 100 100 100 100 100 100 100 100 100 100 100 100 100 100 54 100 100
0 0 0 4 50 96 100 100 100 100 100 100 100 100 100 100 100 100 100 100 100 100 100 100 9 12 94 100 100 99 82 96 99 100 100 100 100 100 100 100 100 100 100 100 100 100 100 100 100
0 0 0 0 0 1 2 52 94 12 66 97 100 100 100 100 100 100 100 94 100 100 100 100 100 100 100 100 100 100 89 100 100 100 100 100 100 100 100 100 100 100 100 100 100 100 100 100 100
0 0 0 0 0 0 0 0 1 2 2 5 5 6 46 100 100 100 100 100 100 100 100 100 100 100 100 100 100 100 100 100 100 100 98 100 100 100 100 100 100 100 100 100 100 100 100 100 95
0 0 0 0 0 0 0 0 0 0 0 0 0 0 0 4 25 100 100 84 100 100 100 100 100 100 100 100 100 100 100 100 100 100 100 100 100 100 100 100 100 100 100 100 100 100 100 100 100
0 0 0 0 0 0 0 0 0 0 0 0 0 0 0 0 0 68 76 89 11 6 88 100 100 100 100 100 100 100 100 100 100 100 100 100 100 100 100 100 100 100 100 100 100 100 100 100 100
0 0 0 0 0 0 0 0 0 0 0 0 0 0 0 0 0 0 0 0 1 10 33 64 74 100 100 100 100 100 100 100 100 100 100 100 100 100 100 100 100 100 100 100 100 100 100 100 100
0 0 0 0 0 0 0 0 0 0 0 0 0 0 0 0 0 0 0 0 0 0 0 0 1 14 54 5 6 46 100 100 100 100 100 100 100 100 100 100 100 100 100 100 100 100 100 100 100
0 0 0 5 5 6 0 4 0 0 0 0 0 0 0 0 0 0 0 0 0 0 0 0 0 0 0 0 0 6 6 6 14 100 100 100 100 100 100 100 100 100 100 100 100 100 100 100 100
17 13 0 5 41 66 1 12 0 0 0 2 6 54 2 0 0 0 0 0 0 0 0 0 0 0 0 0 0 0 0 0 4 14 6 76 100 100 100 100 100 100 100 100 100 100 100 100 100
5 66 36 11 42 55 22 35 0 0 0 1 73 77 13 0 0 0 0 0 0 0 0 0 0 0 0 0 0 0 0 0 0 0 2 5 5 9 100 100 100 100 100 100 100 100 100 100 100
82 100 100 98 93 26 5 11 0 0 1 99 34 0 0 0 0 0 0 0 0 0 0 0 0 0 0 0 0 0 0 0 0 0 0 2 0 1 2 13 51 100 100 100 100 100 100 100 100
0 4 5 100 100 100 9 16 14 98 7 2 18 6 0 0 0 0 0 0 0 0 0 0 0 0 0 0 0 0 0 0 0 0 0 0 0 0 0 0 4 23 51 100 90 99 100 100 100
3 18 41 95 100 100 81 68 100 53 61 70 21 93 16 66 9 0 0 5 0 4 5 4 1 0 0 0 0 0 0 0 0 0 0 0 0 0 0 0 3 68 5 5 4 18 100 100 100
3 90 100 100 100 100 100 100 90 89 97 62 8 9 27 80 79 41 0 0 0 5 5 38 5 4 0 0 0 0 0 0 0 0 0 0 0 0 0 0 1 3 5 3 20 18 44 100 100
0 5 18 100 66 100 100 70 100 100 60 30 5 5 4 100 29 5 69 17 0 3 5 5 5 0 0 0 0 0 0 0 0 0 0 0 0 0 0 0 0 0 0 0 9 11 2 64 100

GFSSGP_prec_cloud_075.txt.gz
Cloud_Cover
62 53 82 12 5 48 96 8 0 1 5 5 74 26 19 28 5 5 5 66 8 5 27 97 5 5 6 66 54 23 56 41 5 9 5 5 4 0 0 5 5 4 5 8 97 100 4 35 100
89 96 95 64 38 100 83 5 5 1 5 5 12 6 53 54 5 3 5 11 25 5 12 13 44 27 5 5 12 5 5 5 5 4 92 100 80 5 6 4 0 0 0 14 100 100 14 2 100
100 100 100 39 93 100 100 79 87 19 3 0 2 53 5 99 84 2 5 53 5 5 30 40 24 5 8 5 5 5 11 21 5 5 62 10 100 94 5 8 5 0 0 0 18 7 5 57 80
100 100 65 64 74 100 100 61 99 91 52 4 0 5 7 6 58 100 17 100 99 10 6 22 5 5 5 5 5 42 6 5 62 5 5 4 62 99 98 5 0 0 0 0 2 94 100 100 46
100 100 81 69 100 100 100 42 99 100 93 52 4 1 52 29 100 100 100 100 100 99 7 46 5 5 5 5 5 4 46 100 100 100 100 3 1 4 5 4 5 1 2 0 72 100 52 26 100
100 100 63 100 100 100 100 100 54 94 96 88 97 54 26 38 28 7 99 99 97 100 100 100 99 5 9 5 5 5 4 9 37 94 77 5 28 15 5 5 5 5 6 1 50 100 76 95 100
100 100 90 100 100 100 100 98 91 97 99 40 96 100 90 19 60 99 85 100 100 100 100 100 71 97 5 5 5 7 3 5 1 31 23 5 9 5 5 5 5 6 5 51 21 58 30 94 24
100 100 100 100 100 100 100 100 99 74 92 36 65 100 58 59 95 61 100 64 68 100 100 100 70 5 5 27 13 56 15 5 5 5 80 100 43 68 68 41 11 12 74 5 68 14 99 47 79
100 100 100 100 100 100 100 100 66 16 10 65 44 56 93 26 69 84 100 99 89 79 100 100 100 16 5 5 6 75 65 5 4 5 6 6 37 24 19 100 100 100 100 15 13 61 44 28 100
100 100 100 100 100 100 100 100 100 49 6 5 26 35 43 87 90 83 89 81 100 94 74 100 100 99 100 91 82 36 92 93 100 100 100 100 91 34 100 96 27 100 100 99 100 100 59 86 58
83 100 100 100 100 100 100 100 100 97 74 78 18 5 18 99 93 98 94 87 100 100 100 100 100 100 100 100 100 99 100 100 100 100 100 100 100 100 35 5 5 84 84 100 100 78 100 100 95
100 95 94 100 100 100 100 100 100 100 100 100 100 8 6 97 80 100 100 100 100 100 98 100 100 100 100 100 100 100 100 100 100 100 100 100 98 100 44 23 6 6 99 68 98 100 32 72 100
100 100 100 100 100 100 100 100 100 100 100 100 100 100 100 100 100 100 82 77 100 94 100 100 100 100 100 100 100 100 100 100 100 100 100 100 100 100 87 69 62 87 67 100 100 68 94 100 100
100 100 100 100 100 100 100 100 100 100 100 100 100 100 100 63 33 26 26 37 97 100 100 99 100 99 100 100 100 100 100 100 100 100 100 100 100 100 100 97 36 91 82 100 91 100 99 99 98
6 5 66 100 100 100 100 100 100 100 100 100 100 100 100 98 46 10 6 74 84 64 100 100 100 92 88 100 100 100 100 96 96 99 100 100 100 100 100 100 100 100 91 100 99 94 100 74 96
0 0 3 56 100 100 100 100 100 100 100 98 100 28 95 100 89 55 100 70 31 91 100 100 98 100 100 100 100 91 100 77 94 100 100 100 100 100 100 100 100 100 100 100 100 100 99 100 100
0 0 0 14 100 100 100 100 100 100 100 100 100 100 100 83 32 75 100 100 100 77 92 96 67 100 100 100 100 22 74 82 70 73 100 100 100 100 100 100 100 100 62 98 100 100 100 100 100
0 0 0 6 23 100 100 100 100 100 100 100 100 100 100 100 100 64 68 97 100 100 100 100 100 100 100 100 100 100 100 100 66 95 95 100 100 99 100 100 100 100 100 100 100 100 100 100 100
0 0 0 0 0 5 100 100 100 100 100 100 100 100 16 100 100 100 100 100 100 100 100 100 100 100 100 100 100 100 100 100 97 100 100 100 100 100 100 100 100 100 69 100 100 85 100 100 100
0 0 0 0 0 0 0 0 0 44 99 100 100 100 99 76 100 100 100 65 97 100 100 70 100 100 100 100 100 100 100 100 100 100 100 100 100 100 100 100 100 84 99 100 100 100 100 100 100
5 0 0 0 0 0 0 0 0 0 0 0 1 3 4 5 10 26 32 75 35 50 100 100 94 100 100 100 100 100 100 100 100 100 100 100 100 100 100 100 100 100 100 100 100 100 100 100 100
5 0 0 0 0 0 0 0 0 0 0 0 0 0 0 0 0 0 5 2 0 0 0 15 82 35 100 100 100 99 100 100 100 100 100 100 100 100 100 100 100 100 100 100 100 100 100 100 100
0 0 0 2 0 0 0 0 1 0 0 0 0 0 0 0 0 0 0 0 0 0 0 0 0 3 12 10 15 13 100 30 100 72 99 99 100 100 100 100 100 100 100 100 100 100 100 100 100
0 0 0 0 0 0 4 0 53 1 0 0 0 0 0 0 0 0 0 0 0 0 0 0 0 0 0 4 1 3 0 0 17 77 32 5 92 100 100 79 83 88 100 100 100 100 100 100 100
0 0 4 1 1 0 0 1 0 15 0 0 0 0 0 0 0 0 0 0 0 0 0 0 0 0 12 36 25 7 0 0 0 0 0 0 0 0 0 0 26 16 27 41 100 100 100 100 100
5 5 7 3 5 3 9 1 0 0 0 0 0 0 0 0 0 0 0 0 0 0 0 0 0 0 2 44 46 50 54 36 13 2 0 0 0 0 0 0 0 0 0 22 17 98 100 100 100
42 100 100 94 44 11 5 3 0 0 5 5 5 1 3 1 1 0 0 0 0 0 0 0 0 0 0 47 92 12 0 0 0 0 0 0 0 0 0 0 12 8 0 34 85 41 78 100 100
100 92 97 96 40 20 3 5 6 2 0 8 76 73 68 29 5 0 0 0 0 0 0 0 0 0 0 9 95 95 5 0 0 0 0 0 0 0 0 0 0 0 0 0 17 10 2 4 85
24 94 38 29 84 27 7 0 0 0 8 100 100 100 88 100 100 93 6 0 0 0 0 0 0 0 24 67 100 62 31 3 1 0 0 0 0 0 0 0 0 0 0 0 0 0 0 0 0
52 92 76 51 58 100 57 1 0 0 0 62 100 100 100 100 100 78 7 5 0 3 0 0 5 1 33 100 50 100 98 4 5 0 0 0 0 0 0 0 0 0 0 0 0 0 0 0 0

GFSSGP_prec_cloud_078.txt.gz
Cloud_Cover
95 32 5 30 17 5 5 4 5 72 98 100 11 14 63 6 46 9 34 5 5 0 0 0 3 0 0 0 5 4 5 13 80 42 5 3 5 5 5 74 66 18 5 4 0 0 0 20 100
92 85 60 50 5 71 30 52 5 8 92 100 100 7 5 5 5 5 15 5 5 4 1 0 0 12 8 6 4 2 0 3 2 2 2 3 0 5 4 23 10 49 6 5 1 2 0 12 94
100 100 83 50 5 56 100 26 6 5 30 66 62 11 4 5 5 5 19 42 5 3 3 5 4 0 4 70 24 5 27 5 5 3 4 0 3 5 5 5 76 100 2 0 0 0 3 0 46
100 100 51 64 82 100 37 86 100 6 26 5 21 5 5 5 5 97 99 79 6 5 5 5 0 0 1 25 81 5 5 5 5 22 98 99 89 83 27 3 1 4 0 0 5 5 5 38 41
100 100 80 76 100 100 100 55 100 71 5 39 5 5 5 5 5 11 90 100 40 8 8 65 2 3 5 39 72 7 5 5 5 0 10 17 85 100 92 9 0 0 0 0 4 5 5 47 29
100 100 100 96 100 100 100 60 79 100 89 69 25 5 3 5 3 5 5 12 100 93 50 91 100 88 42 5 5 0 0 4 4 5 1 1 0 5 17 37 3 0 0 0 2 9 82 100 23
100 100 100 100 100 100 100 70 83 45 94 78 100 78 36 32 5 5 5 5 99 100 100 100 78 39 99 76 62 49 1 0 0 5 6 5 3 1 8 31 5 3 0 8 98 100 100 100 78
99 100 100 100 100 100 100 100 100 98 59 68 92 53 75 99 97 85 22 5 23 60 91 100 85 6 5 64 100 100 17 5 0 0 5 4 2 4 0 0 4 5 3 75 97 28 59 75 100
8 92 100 100 100 100 100 100 100 100 100 86 100 70 87 100 100 100 88 42 19 55 61 96 100 100 10 13 5 91 100 100 74 5 5 36 4 4 1 2 6 6 10 17 49 63 5 21 69
61 58 100 100 100 100 100 100 100 99 100 95 80 91 81 100 100 89 100 100 98 99 71 86 100 100 98 100 94 49 26 74 95 66 70 11 25 5 5 5 9 95 100 100 100 62 5 5 25
100 72 100 100 100 100 83 44 100 100 97 100 94 100 100 100 100 100 88 100 100 98 100 100 99 100 100 100 100 100 100 85 33 78 100 100 8 88 91 94 6 27 91 100 100 100 5 12 81
100 100 77 100 100 100 100 100 100 100 100 100 100 100 100 94 100 100 100 94 100 100 99 90 100 100 100 100 100 100 100 100 100 100 100 100 99 53 77 98 77 64 99 100 100 100 12 29 99
100 100 100 100 100 100 100 100 100 100 100 100 100 100 70 87 93 100 100 97 100 96 100 100 100 100 100 100 100 100 100 100 100 100 100 100 100 100 100 100 97 100 89 100 100 100 86 83 96
0 80 100 100 100 100 100 100 100 100 100 100 100 76 40 5 96 84 76 96 100 100 100 100 100 100 100 100 100 100 100 100 100 100 100 100 100 100 100 100 100 98 100 100 100 97 60 92 100
0 0 66 100 100 100 100 100 100 100 100 100 100 100 100 77 70 100 100 76 100 100 99 70 100 100 100 100 100 100 100 100 100 100 100 100 100 100 100 87 96 100 100 87 99 96 99 100 83
0 0 0 8 100 100 100 100 100 100 100 100 100 100 100 100 100 100 100 100 100 100 100 100 99 98 100 100 100 100 100 100 100 100 100 100 100 99 83 100 100 97 100 84 100 100 100 75 98
0 0 0 0 4 100 100 100 100 100 100 100 100 100 100 100 100 100 100 100 100 100 100 100 100 100 100 100 100 100 100 100 100 100 100 100 100 99 69 57 100 100 100 99 97 100 100 99 99
0 0 0 0 0 2 100 100 100 100 100 100 100 100 100 100 100 100 99 70 100 100 100 100 100 100 100 100 100 100 100 100 100 100 100 100 100 100 77 92 100 100 100 68 100 99 100 100 100
0 0 0 0 0 0 0 42 100 100 100 100 100 100 100 100 100 100 100 49 100 100 100 100 100 100 100 100 100 100 100 100 100 100 100 100 93 99 70 92 100 100 100 100 70 96 96 100 100
2 0 0 0 0 0 0 0 0 1 23 38 100 85 90 100 100 100 100 100 100 100 100 100 43 100 100 100 100 100 100 100 100 65 88 97 98 21 100 100 100 100 100 100 74 99 100 100 100
5 1 0 0 0 0 0 0 0 0 0 0 0 0 0 6 100 100 100 100 100 100 100 100 99 87 100 100 100 100 100 100 100 100 95 100 100 100 99 79 100 100 100 100 100 100 100 100 100
0 0 0 0 0 0 0 0 0 0 0 0 0 0 0 0 2 7 6 10 32 87 100 100 99 100 100 100 100 100 100 100 100 100 100 100 100 100 100 100 100 100 100 100 100 100 100 100 100
0 0 0 0 0 0 3 0 0 2 0 0 1 0 0 0 0 2 60 6 4 3 2 4 64 97 100 100 98 100 100 100 100 100 100 100 100 100 100 100 100 100 100 100 100 100 100 100 100
4 1 0 0 1 1 0 0 0 0 2 0 2 0 0 0 0 0 0 0 2 5 4 0 0 3 5 3 5 63 100 31 100 100 100 100 94 100 100 100 100 100 100 100 100 100 100 100 100
5 5 15 12 41 17 35 1 0 0 1 0 2 5 4 0 0 0 0 0 0 0 0 0 0 0 0 0 0 0 1 11 31 6 38 20 100 100 80 55 64 96 100 100 100 94 91 100 100
100 23 39 77 6 2 4 0 5 0 2 2 0 0 7 4 20 4 0 0 0 0 0 0 0 0 0 0 0 0 0 0 0 1 5 3 34 46 1 25 15 12 37 27 68 55 20 56 43
99 97 65 10 5 0 4 4 5 47 40 45 17 28 9 2 39 27 1 0 0 0 0 0 0 0 0 0 0 0 13 2 0 0 5 5 3 1 4 12 24 16 33 66 69 29 16 14 5
33 5 5 86 28 9 6 51 100 85 83 37 7 67 82 41 9 4 1 0 1 0 0 0 0 0 0 0 0 20 100 100 24 50 39 5 1 0 0 0 7 76 63 90 52 16 26 65 2
52 89 75 51 60 61 39 20 26 0 3 5 28 5 5 63 62 15 9 89 5 3 0 0 0 0 0 0 0 15 97 98 96 87 74 8 0 0 0 0 0 0 1 57 94 54 52 80 89
39 51 7 99 81 70 14 1 5 0 3 99 100 91 68 10 26 59 98 100 100 83 4 0 0 0 0 0 15 42 100 100 100 100 100 90 0 0 0 0 0 0 0 1 2 10 38 53 55

GFSSGP_prec_cloud_084.txt.gz
Cloud_Cover
100 100 100 100 20 14 83 19 80 83 100 15 42 5 4 5 26 65 7 21 5 5 1 0 0 0 0 0 0 0 0 0 0 0 4 5 5 4 0 0 0 5 7 5 3 4 3 0 0
100 100 100 100 6 8 97 96 84 59 100 89 99 4 0 0 87 34 46 25 4 5 4 2 0 0 0 0 0 0 0 0 5 3 5 11 9 5 3 5 2 0 3 32 100 74 5 1 0
100 100 100 83 12 6 100 97 100 100 74 100 35 0 4 9 53 17 2 84 4 5 5 2 0 0 0 0 0 0 0 0 0 1 4 5 2 4 4 5 3 17 79 100 100 10 5 5 5
97 100 100 26 5 100 100 100 99 100 84 100 99 17 2 67 84 5 2 98 5 5 0 16 2 0 4 5 1 0 0 0 0 0 0 0 0 0 0 0 6 35 28 7 0 0 0 1 0
13 70 8 5 5 100 100 100 100 100 100 100 11 93 49 9 72 5 5 9 52 20 11 14 6 6 8 5 5 5 1 0 0 0 0 0 0 0 0 4 5 3 0 0 0 0 0 0 0
31 4 4 15 5 100 100 89 100 25 95 99 58 100 53 91 76 91 5 7 100 46 5 5 55 100 92 5 5 5 5 5 1 0 0 0 5 5 5 2 2 0 5 2 0 5 0 0 5
0 99 5 13 78 100 100 100 100 94 45 97 49 37 97 37 100 100 89 98 100 100 32 24 5 5 5 57 66 15 47 12 19 5 4 2 0 5 5 5 5 3 0 0 0 5 5 15 12
0 0 4 3 95 85 100 91 100 100 100 100 38 97 95 24 100 100 100 100 100 100 100 95 99 81 33 12 57 5 5 11 24 5 46 93 100 55 89 100 90 88 4 3 5 3 5 7 5
0 0 2 2 5 79 100 100 100 100 83 76 100 100 99 78 100 100 100 100 65 84 100 100 100 100 81 55 31 68 84 12 5 6 5 68 84 77 71 58 99 100 99 14 27 92 100 100 100
0 0 0 0 5 95 100 100 100 98 87 100 98 100 100 82 100 100 92 88 84 78 76 100 100 100 97 49 34 34 55 59 4 4 17 5 5 5 5 4 41 77 70 90 30 46 91 53 5
0 0 0 0 2 60 100 100 100 45 33 99 100 100 100 100 100 100 100 98 58 100 98 72 100 100 100 100 69 22 5 5 0 3 5 0 2 4 5 7 63 4 5 63 91 26 5 48 69
0 0 0 0 6 75 3 100 100 18 100 100 100 100 100 100 100 100 100 100 100 95 96 40 99 99 100 93 99 75 100 57 13 14 5 3 2 5 5 19 9 5 5 5 78 86 6 71 100
0 0 0 0 3 0 0 89 100 86 100 100 100 100 100 100 100 100 100 100 53 77 51 100 100 100 100 91 56 96 46 84 100 100 92 98 85 58 67 45 14 5 5 5 26 26 59 100 78
5 0 0 0 0 0 5 24 100 100 100 100 100 100 100 100 100 100 100 100 100 97 82 100 100 100 100 97 15 98 99 100 72 92 75 93 91 100 96 19 42 48 5 20 5 5 15 18 8
13 2 0 0 0 0 10 100 100 100 100 100 100 100 100 100 100 100 100 100 100 57 62 28 100 100 100 100 43 84 100 100 100 100 69 82 95 100 100 69 79 47 68 38 5 5 92 84 80
0 1 0 0 0 0 0 100 100 100 100 100 100 100 100 100 100 100 100 100 85 53 65 97 91 100 100 100 98 97 100 93 100 91 100 35 96 96 99 97 74 100 98 10 12 37 95 100 95
0 0 0 0 0 0 0 91 100 100 100 100 100 100 100 100 100 100 100 100 100 100 100 100 92 100 100 100 100 94 97 100 100 100 100 98 88 100 100 100 99 100 99 100 83 19 44 85 15
7 11 0 3 42 0 0 3 99 100 100 100 100 100 100 100 100 100 100 100 100 100 100 100 100 69 56 100 100 100 48 100 100 100 100 100 100 66 92 100 100 100 100 100 100 87 88 94 84
66 15 11 40 86 0 0 0 0 25 100 100 100 100 100 100 100 100 100 100 100 100 100 100 100 100 62 62 100 100 100 77 100 100 75 100 100 100 100 40 41 50 100 100 100 51 27 88 99
5 0 0 0 0 0 0 0 0 0 0 1 96 100 100 100 100 100 100 100 100 100 100 100 100 100 100 90 100 100 100 99 67 81 56 48 100 100 100 100 100 93 100 100 100 100 89 99 80
1 2 0 0 4 73 1 0 0 0 0 0 0 62 100 100 100 100 100 100 100 100 57 98 100 100 100 100 79 76 100 100 100 86 100 100 100 92 100 100 91 100 100 100 100 96 100 100 55
5 2 9 4 2 0 1 5 2 1 3 4 1 0 4 92 100 99 100 100 69 100 100 100 100 100 100 100 100 100 100 100 100 100 100 100 86 24 38 56 44 100 100 100 100 100 95 100 96
33 89 32 5 5 4 4 15 4 58 76 86 99 23 1 0 0 70 99 100 100 100 61 100 100 100 100 100 100 100 100 100 100 100 100 100 100 100 100 100 100 11 18 100 100 100 96 82 97
28 5 5 3 9 45 5 63 6 94 100 97 21 5 0 0 0 0 0 85 100 100 98 16 6 4 72 87 100 100 100 100 100 100 100 100 100 100 100 100 100 100 100 100 100 100 100 100 100
100 59 55 100 100 71 88 100 99 99 64 28 5 0 0 0 0 0 0 0 9 82 98 100 100 97 64 2 0 11 21 17 25 91 100 100 100 100 100 100 100 100 100 100 100 100 100 100 100
100 100 100 73 66 78 99 100 75 90 11 1 0 0 0 0 0 0 0 0 0 0 0 5 0 1 11 38 5 4 0 0 0 0 1 0 11 98 100 100 100 65 100 100 100 100 100 100 100
100 99 100 84 65 68 100 84 19 55 3 0 0 0 0 2 21 42 2 4 5 0 0 0 0 2 1 0 0 0 0 0 0 4 3 0 0 0 5 97 100 97 80 57 6 27 21 97 100
100 100 100 100 100 91 75 90 83 83 86 81 67 64 18 1 1 82 20 25 4 5 1 0 4 12 2 5 2 0 0 0 0 0 0 0 0 0 2 7 75 75 73 70 26 20 6 100 49
100 100 100 100 100 100 100 37 52 85 3 0 0 0 0 52 93 32 2 0 0 19 21 1 0 5 4 33 97 11 3 5 7 0 0 0 0 4 26 5 3 84 49 59 99 100 83 100 100
100 100 100 100 88 81 100 82 5 30 6 5 5 94 99 77 47 38 8 40 4 0 1 6 98 7 50 6 29 7 3 5 14 40 1 0 2 0 0 19 72 46 92 100 100 100 100 100 100

GFSSGP_prec_cloud_087.txt.gz
Cloud_Cover
100 100 79 5 3 19 100 87 79 4 6 44 49 100 54 5 6 100 27 5 2 16 47 20 0 0 0 0 0 0 0 0 0 0 0 0 2 4 5 5 2 5 0 0 5 5 99 100 37
73 98 14 11 0 9 100 96 100 85 28 5 50 54 75 5 39 100 100 0 27 15 12 34 0 0 0 0 0 0 0 0 0 0 0 6 0 5 2 0 0 0 4 4 3 83 100 88 3
0 1 5 1 3 27 100 100 100 58 24 5 78 96 86 26 77 60 14 0 4 1 0 16 0 0 0 0 0 0 0 0 0 0 0 13 1 0 0 0 0 0 0 0 4 5 4 3 0
5 0 0 0 0 55 100 100 100 100 99 13 75 11 16 49 98 32 5 0 4 5 0 9 0 0 0 0 0 1 5 0 0 0 0 1 9 0 0 0 0 0 0 0 5 1 0 0 0
86 1 0 0 2 78 99 100 100 100 41 67 100 56 7 4 75 45 0 5 4 0 2 18 0 0 0 0 0 5 5 5 5 5 0 0 0 1 0 0 0 4 5 5 0 0 0 0 0
99 78 0 0 0 8 100 100 100 100 100 99 99 66 79 5 1 4 80 4 5 4 18 20 5 0 0 5 8 80 55 26 5 26 53 4 0 1 0 0 0 3 4 3 2 3 3 5 5
97 35 78 0 0 0 43 100 100 100 100 100 69 70 96 46 13 46 13 15 5 1 5 14 35 2 0 5 5 17 34 38 5 20 8 40 18 5 5 5 6 5 59 100 98 72 92 38 5
4 5 24 5 0 0 34 100 100 100 100 100 98 80 90 100 55 98 9 6 37 41 5 17 87 92 50 18 5 5 98 100 100 18 5 48 5 5 5 8 86 58 100 100 100 100 100 100 96
0 0 0 0 4 0 2 47 9 100 75 100 80 96 84 44 100 100 100 18 94 100 26 10 57 96 100 95 65 13 8 5 5 27 6 5 6 6 5 5 33 12 77 98 45 53 95 100 99
0 0 0 0 0 0 45 100 95 100 100 100 100 92 19 95 100 100 100 68 20 82 96 5 5 4 16 54 58 80 50 47 44 36 31 5 5 5 2 4 5 4 0 0 5 5 5 9 6
0 0 0 0 0 4 30 100 17 100 100 94 100 100 98 13 29 100 100 64 99 16 23 100 85 27 91 100 100 100 100 98 36 29 16 5 2 0 0 0 0 4 1 2 5 5 5 5 5
0 0 0 0 0 2 98 100 6 100 76 100 100 100 99 99 93 100 100 100 10 6 96 100 100 100 100 100 100 100 45 39 32 5 5 5 1 0 0 0 0 0 0 2 0 2 5 5 5
0 0 0 0 0 2 97 99 100 7 64 100 100 100 78 100 31 100 100 100 100 76 10 82 100 100 100 100 100 100 79 100 84 49 21 41 20 10 4 2 3 2 5 10 9 4 5 0 0
0 0 0 1 8 100 70 0 0 0 100 100 100 100 100 100 91 97 98 100 100 100 99 5 59 100 100 100 100 100 100 100 100 100 100 100 52 65 67 39 89 82 55 37 5 5 5 5 5
2 95 76 10 0 0 0 0 0 0 11 100 100 100 100 100 100 100 100 100 100 100 100 96 94 100 100 100 100 100 100 100 100 100 100 82 47 97 100 73 99 62 11 6 5 5 5 5 5
0 10 59 36 0 0 0 0 0 0 0 93 100 100 100 100 100 100 100 100 100 100 100 100 100 100 100 100 100 100 100 100 100 100 96 100 98 98 100 97 78 100 15 5 24 52 64 86 34
2 58 6 1 0 0 0 0 0 0 0 0 85 100 100 100 100 100 100 100 100 100 100 33 95 62 100 100 70 100 100 100 100 88 81 100 77 100 100 100 45 26 100 72 100 89 81 100 91
3 0 6 31 90 58 3 0 0 0 0 0 0 27 100 100 100 100 100 100 100 100 97 100 73 25 87 100 100 27 98 100 100 100 100 100 100 52 90 96 78 37 96 100 100 20 100 100 95
3 43 5 99 100 79 99 17 0 0 0 0 0 5 62 100 100 100 100 100 100 100 100 100 100 95 24 100 100 100 100 100 100 100 100 100 100 100 100 100 100 46 31 96 80 27 96 100 100
74 48 0 67 100 100 98 6 4 0 0 0 0 0 12 99 100 100 100 100 100 100 100 100 100 100 100 91 100 100 86 63 100 97 98 100 100 100 100 100 100 100 64 32 21 96 84 100 100
33 19 0 1 25 39 7 0 0 0 0 0 0 0 0 18 48 98 100 100 100 100 100 100 100 100 100 42 100 100 100 99 90 99 100 100 100 100 88 97 100 100 100 100 100 100 100 100 100
100 34 6 3 4 0 0 0 0 0 0 1 1 3 1 0 3 30 100 100 100 100 100 100 100 100 88 49 4 7 100 100 98 100 75 98 87 100 100 99 92 96 98 100 72 100 100 100 100
100 100 84 5 0 6 21 4 0 0 79 100 93 6 4 0 0 4 19 100 100 100 100 100 96 100 100 100 100 100 100 100 100 100 100 95 100 100 100 100 100 100 20 99 100 100 100 100 100
100 100 100 35 18 69 41 41 13 22 60 40 31 67 58 17 4 0 0 0 25 57 75 100 100 100 75 54 78 100 100 100 100 100 100 99 72 10 96 100 100 100 100 100 100 100 100 100 100
100 100 100 100 30 100 89 42 72 34 100 70 93 93 100 100 97 85 19 5 5 1 0 0 0 7 54 100 100 72 19 9 40 78 100 100 100 98 63 69 100 100 100 100 100 100 100 100 100
100 97 100 100 100 100 100 98 100 100 100 82 59 100 51 21 6 5 3 3 0 0 0 0 0 0 0 0 18 100 100 100 47 3 0 0 1 79 100 100 100 100 100 100 100 100 100 100 95
100 100 100 100 100 100 100 100 100 93 19 83 62 3 0 0 0 0 0 0 0 0 0 0 0 0 0 0 0 0 0 3 5 3 15 5 3 1 1 50 99 100 100 100 100 100 100 100 100
100 100 100 98 91 100 100 100 100 59 99 40 4 0 0 0 0 0 4 5 4 5 40 5 3 0 0 0 0 0 0 0 0 0 0 0 34 9 4 1 0 5 34 77 100 100 100 100 100
100 100 100 67 84 100 100 100 100 90 48 39 5 5 2 0 0 4 2 2 13 13 17 4 4 14 6 0 0 0 2 1 4 0 0 0 0 0 0 1 0 1 1 14 52 100 100 100 100
100 100 100 100 99 100 100 100 100 43 69 5 5 0 1 1 6 89 100 74 37 45 8 5 5 8 5 5 5 57 13 3 5 0 0 0 0 0 0 0 0 0 0 0 51 100 100 100 100